Terminal Aerodrome Forecast
Issued by NWS

Home | Current Version | Previous Version | Text Only | Print | Product List | Glossary Off
Versions: 1 2 3 4 5 6 7 8 9 10 11 12 13 14 15 16 17 18 19 20 21 22 23 24 25 26 27 28 29 30 31 32 33

000
FTUS43 KDDC 301938 AAB
TAFGCK
TAF AMD
KGCK 301938Z 3020/3118 35009KT P6SM SKC
     FM302100 11004KT P6SM SKC
     FM310600 10014KT P6SM OVC150
     FM310900 09015G25KT 3SM BR OVC010
     FM311200 09015G25KT 3SM BR OVC003
     FM311500 09020G30KT 5SM BR OVC003=

USA.gov is the U.S. government's official web portal to all federal, state and local government web resources and services.